Regional Weather Roundup
Issued by NWS Grand Forks, ND

Home | Current Version | Previous Version | Graphics & Text | Print | Product List | Glossary On
Versions: 1 2 3 4 5 6 7 8 9 10 11 12 13 14 15 16 17 18 19 20 21 22 23 24 25 26 27 28 29 30 31 32 33 34 35 36 37 38 39 40 41 42 43 44 45 46 47 48 49 50
000
ASUS43 KFGF 141331
RWRFGF
PRAIRIE TO PINES  WEATHER ROUNDUP
NATIONAL WEATHER SERVICE EASTERN NORTH DAKOTA/GRAND FORKS ND
800 AM CDT SUN SEP 14 2014

 **SATELLITE DATA USED TO AUGMENT SKY COVER AT AUTOMATED STATIONS**
 *****  WEATHER ACROSS EASTERN NORTH DAKOTA  *****

CITY           SKY/WX    TMP DP  RH WIND       PRES   REMARKS
GRAND FORKS    CLOUDY    49  44  83 NW12      30.04R
GRAND FRKS AFB CLOUDY    49  46  92 NW9       30.05R
GRAND FRKS NWS   N/A     48 N/A N/A NW2         N/A
DEVILS LAKE    CLOUDY    45  37  76 NW12      30.08R
FARGO          CLEAR     43  39  86 W13       30.08R
WAHPETON ARPT  SUNNY     41  37  87 W9        30.12S
$$

 ***** WEATHER ACROSS CENTRAL AND WESTERN NORTH DAKOTA  *****

CITY           SKY/WX    TMP DP  RH WIND       PRES   REMARKS
BISMARCK       CLEAR     36  33  89 S3        30.17R
MINOT          CLEAR     38  35  89 NW12      30.14S
JAMESTOWN      CLOUDY    44  40  85 NW13      30.12R
MINOT AFB      CLEAR     37  36  99 NW10      30.15R
GARRISON         N/A     35  34  96 W9        30.16R
WILLISTON      CLEAR     29  28  96 CALM      30.19R
DICKINSON      PTCLDY    32  31  96 NW3       30.15S
HETTINGER      PTCLDY    35  31  85 CALM      30.18R
$$

 *****  OTHER AIRPORT OBSERVATIONS IN OUR AREA  *****

CITY           SKY/WX    TMP DP  RH WIND       PRES   REMARKS
WALHALLA         N/A     46  46 100 NW14G20   30.06R
GRAFTON AIRPOR CLOUDY    48  45  87 NW10      30.05R
VALLEY CITY AR PTSUNNY   41  41 100 W12       30.11R
CANDO          CLOUDY    45  41  87 NW9       30.10R
CAVALIER APRT  NOT AVBL
GWINNER        SUNNY     43  39  87 W9        30.13S
ROLLA          CLOUDY    43  43 100 NW13      30.11R
 ***** THE ABOVE OBSERVATIONS ARE NON NWS ARE NOT QUALITY
       CONTROLLED AND MAY MIS-REPORT RAIN FOR SNOW...
$$

  *****  WEATHER ACROSS NORTHERN MINNESOTA  *****

CITY           SKY/WX    TMP DP  RH WIND       PRES   REMARKS
FLAG ISLAND    CLOUDY    46  45  93 NW15      29.93R
WARROAD        CLOUDY    46  43  87 W7        29.98R
ROSEAU         CLOUDY    48  43  81 W7        29.98R
HALLOCK        CLOUDY    48  46  93 NW13G18   30.02R
THF RVR FALLS  CLOUDY    46  45  93 W8        30.02R
BAUDETTE       CLOUDY    47  45  93 VRB7      29.95R
WASKISH        CLOUDY    46  45  93 W15G22    29.98R
CROOKSTON      CLOUDY    46  45  93 W9        30.04R
STEPHEN NDAWN    N/A     48  46  93 N12         N/A
GREENBUSH NDAW   N/A     46  46 100 NW8         N/A
$$
  *****  WEATHER ACROSS CENTRAL AND WEST MINNESOTA  *****

CITY           SKY/WX    TMP DP  RH WIND       PRES   REMARKS
FOSSTON        CLOUDY    43  39  87 SW9       30.04R
BEMIDJI        CLOUDY    42  40  90 SW8       30.02R
PARK RAPIDS    CLOUDY    42  40  92 W7        30.05R
ELBOW LAKE     FAIR      41  39  92 W9        30.11S
WADENA         CLEAR     43  39  87 SW5       30.07R
DETROIT LAKES  CLOUDY    43  41  93 W13       30.07S
MOORHEAD       CLEAR     45  45 100 W10G16    30.10R
FERGUS FALLS   CLEAR     39  37  93 W6        30.12R
MORRIS MN      CLEAR     45  39  81 W6        30.12R
STAPLES        SUNNY     45  39  81 SW10      30.07R
$$
  *****  WEATHER ELSEWHERE ACROSS MINNESOTA  *****

CITY           SKY/WX    TMP DP  RH WIND       PRES   REMARKS
DULUTH         MOSUNNY   48  43  82 SW10      30.01R
INTRNTL FALLS  CLOUDY    46  43  89 SW13G20   29.93R
ELY            PTSUNNY   46  43  87 SW6       29.96S
CLOQUET        SUNNY     48  43  81 SW9       30.02S
WHEATON        CLEAR     43  37  81 W7        30.15R
BRAINERD       SUNNY     45  42  89 W9        30.07R
HIBBING        SUNNY     45  41  86 SW5       29.99R
ALEXANDRIA     CLEAR     46  40  79 W12       30.11R
SAINT CLOUD    SUNNY     48  44  86 SW8       30.09S
MINNEAPOLIS    MOSUNNY   50  43  77 SW13G20   30.13R
$$

  *****  WEATHER ACROSS SOUTH DAKOTA  *****

CITY           SKY/WX    TMP DP  RH WIND       PRES   REMARKS
SIOUX FALLS    PTCLDY    43  43 100 CALM      30.17R
BROOKINGS      NOT AVBL
WATERTOWN      CLEAR     43  39  86 CALM      30.14S
HURON          PTCLDY    40  37  89 CALM      30.18R
SISSETON         N/A     44  39  82 W6        30.13R
ABERDEEN       CLEAR     35  33  92 CALM      30.17R
MITCHELL       CLEAR     42  39  89 W3        30.20R
PIERRE         PTCLDY    40  39  97 SW3       30.18R
MOBRIDGE       CLEAR     37  36  96 NE3       30.16R
RAPID CITY     MOCLDY    35  32  88 NW5       30.18R
$$

  *****  SOME WEATHER IN NEARBY STATES *****

CITY           SKY/WX    TMP DP  RH WIND       PRES   REMARKS
GLASGOW MT     PTCLDY    37  31  78 E10       30.13S
GREAT FALLS MT CLEAR     33  32  96 SW5       30.06S
CHEYENNE WY    CLEAR     44  34  67 W7        30.14R
SCOTTSBLUFF NE CLOUDY    46  44  93 E6        30.11R
OMAHA NE       PTCLDY    51  46  83 SE9       30.22S
DES MOINES IA  PTSUNNY   51  45  79 S6        30.25R
DAVENPORT IA   SUNNY     46  41  82 S5        30.29F
CHICAGO IL     PTSUNNY   50  45  83 S7        30.31S
EAU CLAIRE WI  SUNNY     50  42  74 S8        30.13F
LA CROSSE WI   CLOUDY    52  41  66 S14       30.21S
$$

  *****  SOME NATIONAL WEATHER *****

CITY           SKY/WX    TMP DP  RH WIND       PRES   REMARKS
LA GUARDIA NY  MOSUNNY   57  47  69 N9        30.27R
RALEIGH NC     PTSUNNY   65  54  67 NE9       30.28R
ATLANTA GA     CLOUDY    72  70  94 E6        30.20R FOG
NEW ORLEANS LA CLOUDY    74  69  85 NE14      30.11R
OKLAHOMA CITY  CLOUDY    57  53  86 S7        30.24R
ALBUQUERQUE NM PTCLDY    62  50  64 E5        30.25R
SALT LAKE CITY MOCLDY    64  40  41 E6        30.00R
LOS ANGELES CA CLEAR     71  65  81 CALM      29.73R
BOISE ID       CLEAR     54  29  38 S7        29.96R
SEATTLE WA     CLEAR     56  48  74 N3        29.91R
$$

*** WEATHER ACROSS MANITOBA...SASKATCHEWAN AND ONTARIO ***
                ***ONTARIO***

CITY           SKY/WX    TMP DP  RH WIND       PRES   REMARKS
GERALDTON      PTSUNNY   45  41  87 SE6       30.05F
THUNDER BAY    LGT RAIN  48  45  87 S8        29.98F
SIOUX LOOKOUT  LGT RAIN  45  45 100 E2        29.87
TORONTO        PTSUNNY   50  43  76 CALM      30.35S
BIG TROUT LK   CLOUDY    41  39  93 NE5       29.99S
PICKLE LAKE    PTSUNNY   43  37  81 S7        29.95S
DRYDEN         LGT RAIN  45  43  93 NE13G20   29.85S FOG
KENORA         LGT RAIN  46  45  93 N8        29.92R
$$
                *** MANITOBA***

CITY           SKY/WX    TMP DP  RH WIND       PRES   REMARKS
BRANDON        PTCLDY    37  37 100 NW8       30.11R
DAUPHIN        CLOUDY    43  39  87 W8        30.11R
ISLAND LAKE    CLOUDY    43  41  93 E6        30.03R
PILOT MOUND      N/A     43  41  93 NW12G17     N/A
THE PAS        PTCLDY    39  37  93 S2        30.08R
THOMPSON       MOCLDY   N/A N/A N/A S2          N/A
WINNIPEG       MOCLDY    43  43 100 NW10      30.02R
LYNN LAKE      CLOUDY    39  36  87 MISG      29.98F
CHURCHILL      MOCLDY    37  36  93 SW6       29.93F
GILLAM         MOCLDY    37  36  93 SW7       30.03F
$$
                ***SASKATCHEWAN***

CITY           SKY/WX    TMP DP  RH WIND       PRES   REMARKS
ESTEVAN        PTCLDY    30  30 100 NW3       30.17S
KINDERSLEY     MOCLDY    37  36  93 S5        30.10S
LLOYDMINSTER   PTCLDY    37  34  87 SW8       30.06S
PRINCE ALBERT  MOCLDY    32  30  93 S2        30.09F
REGINA         MOCLDY    28  28 100 SE5       30.16R WCI  23
YORKTON        PTCLDY    36  36 100 W6        30.14R
N. BATTLEFORD  CLOUDY    41  37  87 SE5       30.10S
LA RONGE       PTCLDY    32  30  93 W3        30.02S
SASKATOON      MOCLDY    36  34  93 SE6       30.12S
SWIFT CURRENT  CLEAR     34  30  86 S9        30.11
$$
NOTE: THESE ARE AUTOMATED STATIONS WITH LIMITED QUALITY CONTROL
      "FAIR" INDICATES FEW OR NO CLOUDS BELOW 12,000 FEET WITH NO
      SIGNIFICANT WEATHER AND/OR OBSTRUCTIONS TO VISIBILITY.
      SKY/WX - SKY CONDITION AND SIGNIFICANT WEATHER.
      TMP - AIR TEMPERATURE.    DP   - DEWPOINT TEMPERATURE.
      RH  - RELATIVE HUMIDITY.  PRES - PRESSURE.
      HX  - HEAT INDEX.         WCI  - WIND CHILL INDEX.
$



USA.gov is the U.S. government's official web portal to all federal, state and local government web resources and services.